Hourly Data Report for October 26, 2015

All times are specified in Local Standard Time (LST). Add 1 hour to adjust for Daylight Saving Time where and when it is observed.

KUGAARUK CLIMATE
NUNAVUT

68°32'15.060" N
89°47'47.020" W
15.80 m
2303094
71407
NBB

Download Data

Hourly Data (October 2015)
Hourly Data Report for October 26, 2015
Temp Definition
°C
Dew Point Temp Definition
°C
Rel Hum Definition
%
Wind Dir Definition
10's deg

Wind Spd Definition
km/h
Visibility Definition
km
Stn Press Definition
kPa
Hmdx Definition


Wind Chill Definition


Weather Definition


TIME
00:00 -14.6 -17.3 80 31 17   99.52   -23 LegendNANA
01:00 -13.8 -16.6 79 35 24   99.56   -23 LegendNANA
02:00 -13.1 -15.8 80 35 35   99.58   -24 LegendNANA
03:00 -12.9 -15.7 79 35 32   99.64   -24 LegendNANA
04:00 -12.8 -15.7 79 34 31   99.70   -23 LegendNANA
05:00 -12.7 -15.6 79 32 20   99.76   -21 LegendNANA
06:00 -12.5 -15.2 80 29 19   99.73   -21 LegendNANA
07:00 -11.9 -14.7 80 31 22   99.73   -21 LegendNANA
08:00 -12.1 -15.0 79 29 24   99.76   -21 LegendNANA
09:00 -11.9 -14.9 79 29 24   99.76   -21 LegendNANA
10:00 -11.6 -14.8 77 30 26   99.78   -21 LegendNANA
11:00 -11.3 -14.7 76 30 24   99.81   -20 LegendNANA
12:00 -11.1 -14.1 78 31 23   99.83   -20 LegendNANA
13:00 -10.9 -14.2 77 30 23   99.89   -20 LegendNANA
14:00 -11.1 -14.3 78 30 20   99.93   -19 LegendNANA
15:00 -12.1 -14.8 80 27 26   99.95   -22 LegendNANA
16:00 -11.8 -15.0 77 29 23   100.00   -21 LegendNANA
17:00 -13.2 -16.1 79 27 24   100.03   -23 LegendNANA
18:00 -13.6 -16.4 80 27 29   100.08   -24 LegendNANA
19:00 -13.9 -16.6 80 26 31   100.07   -25 LegendNANA
20:00 -14.3 -16.9 81 27 31   100.13   -25 LegendNANA
21:00 -14.5 -17.4 78 28 25   100.16   -25 LegendNANA
22:00 -14.7 -17.7 78 28 33   100.19   -26 LegendNANA
23:00 -14.9 -17.9 78 25 30   100.22   -26 LegendNANA

Notes on Data Quality.

Legend

  • E = Estimated
  • M = Missing
  • NA = Not Available
  • ‡ = Partner data that is not subject to review by the National Climate Archives
Date modified: